Flag for Colombia Weather past 2 weeks in Cartagena, Colombia

Now
79 °F

Partly cloudy.


Feels Like: 82 °F
Forecast: 78 / 88 °F
Wind: 6 mph from West

Location: Cartagena / Rafael Nunez


UV Index: 7 (High)

Visibility: N/A


Pressure: 29.82 "Hg

Humidity: 84%

Dew point: 73 °F

Location of CartagenaLocation

Historic Weather in Cartagena

°F

Cartagena temperature yesterday

Maximum temperature yesterday: 88 °F (at 10:00 AM)
Minimum temperature yesterday: 79 °F (at 12:00 AM)
Average temperature yesterday: 82 °F

Past Weeks' High & Low Weather Summary

 TemperatureHumidityPressure
High95 °F (Apr 8, 12:00 PM)94% (Apr 2, 4:00 AM)29.90 "Hg (Apr 2, 4:00 AM)
Low77 °F (Apr 2, 4:00 AM)55% (Apr 12, 9:00 AM)29.70 "Hg (Apr 11, 4:00 PM)
Average83 °F79%29.79 "Hg
* Reported Apr 1 11:00 PM — Apr 16 11:00 PM, Cartagena, Weather by CustomWeather, © 2014

Note: Actual official high and low records may vary slightly from our data, if they occured in-between our weather recording intervals... More about our weather records

Advertising

Historic Weather Conditions — Data for Previous 24 hours

 ConditionsComfort  
Time TempWeatherWind HumidityBarometerVisibility
11:00 PM
Apr 16
79 °FPartly cloudy.8 mph84%29.82 "HgN/A
10:00 PM79 °FPartly cloudy.5 mph84%29.83 "HgN/A
9:00 PM81 °FPartly cloudy.6 mph79%29.82 "HgN/A
8:00 PM81 °FPassing clouds.5 mph79%29.79 "HgN/A
7:00 PM81 °FPassing clouds.6 mph79%29.78 "HgN/A
6:00 PM82 °FPartly sunny.7 mph74%29.77 "HgN/A
5:00 PM82 °FPartly sunny.7 mph79%29.75 "HgN/A
4:00 PM82 °FScattered clouds.9 mph79%29.75 "HgN/A
3:00 PM82 °FScattered clouds.14 mph79%29.76 "HgN/A
2:00 PM84 °FScattered clouds.9 mph79%29.79 "HgN/A
1:00 PM84 °FScattered clouds.No wind79%29.83 "HgN/A
11:00 AM88 °FPassing clouds.9 mph70%29.88 "HgN/A
10:00 AM88 °FScattered clouds.7 mph66%29.88 "HgN/A
9:00 AM86 °FPassing clouds.5 mph70%29.88 "HgN/A
8:00 AM82 °FScattered clouds.6 mph79%29.87 "Hg6 mi
6:00 AM79 °FScattered clouds.No wind89%29.81 "HgN/A
5:00 AM79 °FPassing clouds.No wind89%29.80 "HgN/A
4:00 AM79 °FPassing clouds.No wind84%29.84 "HgN/A
3:00 AM79 °FPassing clouds.5 mph84%29.83 "HgN/A
2:00 AM79 °FPassing clouds.5 mph84%29.84 "HgN/A
1:00 AM79 °FPassing clouds.5 mph84%29.84 "HgN/A
12:00 AM79 °FClear.5 mph84%29.84 "Hg10 mi
Weather by CustomWeather, © 2014

See weather overview